星链-31134 (STARLINK-31134 )

导读 | 豆包AI

STARLINK-31134是美国星链计划的卫星,于2023年12月23日发射升空,属于SpaceX星链星座组网卫星,主要为全球提供高速低延迟互联网服务,尤其服务偏远地区、移动载体等传统网络覆盖不足场景。星链持续大规模部署卫星,该星助力扩大星座覆盖规模,也引发了太空轨道资源竞争等讨论。

基本信息
目录编号:
58621
目录名称:
STARLINK-31134
国际标识:
2023-203D
轨道中心:
EARTH
卫星名称:
星链-31134
卫星全名:
星链-31134 (STARLINK-31134 )
卫星状态:
在轨 (已飞行859 天)
发射日期:
2023-12-23 UTC
国别 :
美国 (US)
星等 :
--
轨道信息
数据来源 国际轨道数据
星历时间: 2026-04-30T15:51:02+0800
13小时前
查看轨道信息
半长轴: 6861.158km
偏心率: 0.0001075
轨道倾角: 43.000°
近地点辐角 278.889°
升交点赤经 135.900°
平近点角 81.184°
近地点: 482.283km
远地点: 483.759km
周期: 94.266分钟
每日圈数: 15.275894
详细信息
固有亮度:
5
最大亮度:
0.3
卫星平台:
Starlink v2.0 mini
覆盖范围:
全球
运营商:
太空探索技术公司
运营商所在国:
美国
制造商(研发单位):
太空探索技术公司
制造商所在国:
美国
使用方式:
暂无
卫星简介
星链(Starlink)计划是由太空探索技术公司(SpaceX)提出的一个巨型低轨卫星互联网星座项目,计划在2019年至2024年间在太空搭建由约1.2万颗卫星组成的“星链”网络,其中1584颗将部署在地球上空550千米处的近地轨道,并从2020年开始工作。该卫星仍在工作。
2D轨道图
3D轨道图
轨道高度分析图
轨道倾角分析图
轨道综合分析图
查看轨道综合分析图